Total_Precipitation_Accumulation
1.64 1.56 1.16 0.63 0.47 0.35 0.28 0.28 0.28 0.23 0.27 0.31 0.32 0.31 0.35 0.35 0.32 0.33 0.31 0.26 0.28 0.41 0.58 0.66 0.70 0.91 1.08 1.18 1.30 1.38 1.48 1.54 1.66 1.68 1.66 1.61 1.42 1.17 0.98 0.87 0.80 0.70 0.63 0.60
1.45 1.08 0.67 0.49 0.46 0.41 0.36 0.34 0.32 0.27 0.26 0.33 0.35 0.32 0.29 0.27 0.30 0.32 0.32 0.31 0.30 0.37 0.47 0.54 0.58 0.68 0.83 0.97 1.18 1.32 1.41 1.54 1.55 1.55 1.66 1.77 1.81 1.61 1.31 1.16 1.02 0.88 0.79 0.75
1.09 0.66 0.52 0.59 0.55 0.50 0.38 0.31 0.28 0.28 0.31 0.34 0.34 0.31 0.24 0.25 0.30 0.31 0.31 0.31 0.28 0.28 0.34 0.40 0.46 0.58 0.71 0.81 1.01 1.25 1.40 1.54 1.57 1.61 1.82 1.95 2.05 1.85 1.53 1.19 1.03 1.00 0.99 0.96
0.95 0.58 0.56 0.66 0.50 0.42 0.38 0.22 0.21 0.24 0.36 0.40 0.33 0.43 0.28 0.27 0.31 0.31 0.31 0.31 0.26 0.25 0.28 0.31 0.36 0.46 0.57 0.67 0.84 1.01 1.20 1.40 1.57 1.62 1.65 1.66 1.70 1.65 1.44 1.32 1.23 1.23 1.21 1.17
0.89 0.61 0.63 0.67 0.46 0.37 0.34 0.21 0.24 0.25 0.35 0.39 0.29 0.40 0.33 0.19 0.22 0.29 0.33 0.32 0.29 0.27 0.27 0.28 0.34 0.43 0.48 0.58 0.78 0.91 1.02 1.21 1.43 1.54 1.59 1.67 1.60 1.58 1.63 1.59 1.48 1.36 1.28 1.24
0.68 0.55 0.67 0.57 0.44 0.40 0.36 0.35 0.38 0.36 0.49 0.51 0.24 0.32 0.33 0.22 0.22 0.25 0.25 0.29 0.30 0.28 0.32 0.35 0.38 0.41 0.43 0.45 0.61 0.82 0.87 1.00 1.16 1.37 1.53 1.58 1.52 1.54 1.54 1.53 1.48 1.42 1.37 1.33
0.91 0.68 0.56 0.50 0.58 0.51 0.45 0.54 0.76 0.79 0.71 0.37 0.17 0.24 0.29 0.20 0.20 0.23 0.23 0.24 0.26 0.32 0.35 0.37 0.38 0.37 0.38 0.38 0.45 0.59 0.72 0.84 0.91 1.09 1.23 1.36 1.44 1.46 1.48 1.49 1.41 1.32 1.26 1.21
0.87 0.90 0.55 0.46 0.54 0.56 0.43 0.40 0.50 0.49 0.31 0.21 0.18 0.23 0.23 0.20 0.19 0.18 0.18 0.21 0.22 0.27 0.29 0.31 0.35 0.40 0.42 0.39 0.42 0.46 0.52 0.62 0.68 0.77 0.88 0.99 1.14 1.22 1.20 1.24 1.26 1.23 1.17 1.17
0.50 0.54 0.35 0.30 0.31 0.35 0.44 0.35 0.22 0.36 0.31 0.28 0.20 0.17 0.16 0.16 0.16 0.16 0.18 0.21 0.25 0.29 0.33 0.33 0.37 0.39 0.42 0.43 0.45 0.45 0.47 0.52 0.59 0.61 0.66 0.69 0.80 0.92 0.98 0.99 1.01 1.02 1.03 1.07
0.27 0.35 0.29 0.26 0.31 0.32 0.31 0.28 0.33 0.57 0.48 0.33 0.18 0.14 0.20 0.17 0.14 0.16 0.20 0.21 0.25 0.35 0.34 0.34 0.37 0.38 0.40 0.42 0.45 0.42 0.42 0.44 0.53 0.57 0.61 0.61 0.63 0.70 0.82 0.88 0.83 0.85 0.87 0.91
0.22 0.33 0.33 0.31 0.32 0.26 0.22 0.28 0.32 0.38 0.33 0.30 0.18 0.19 0.22 0.19 0.17 0.18 0.20 0.23 0.30 0.36 0.36 0.35 0.36 0.39 0.43 0.46 0.44 0.40 0.42 0.43 0.46 0.49 0.49 0.49 0.54 0.59 0.65 0.71 0.73 0.73 0.77 0.77
0.14 0.23 0.29 0.21 0.13 0.12 0.18 0.18 0.23 0.41 0.28 0.19 0.19 0.22 0.22 0.19 0.17 0.17 0.19 0.22 0.27 0.30 0.33 0.31 0.31 0.35 0.40 0.41 0.37 0.36 0.41 0.41 0.43 0.44 0.42 0.43 0.46 0.51 0.53 0.56 0.60 0.62 0.66 0.68
0.15 0.23 0.32 0.31 0.25 0.23 0.24 0.15 0.16 0.32 0.46 0.31 0.26 0.24 0.20 0.16 0.14 0.14 0.16 0.18 0.21 0.23 0.22 0.22 0.22 0.22 0.24 0.26 0.25 0.29 0.32 0.30 0.32 0.33 0.32 0.33 0.36 0.41 0.46 0.48 0.49 0.52 0.56 0.59
0.33 0.28 0.26 0.30 0.28 0.36 0.34 0.16 0.16 0.49 0.62 0.25 0.14 0.19 0.17 0.16 0.17 0.18 0.17 0.16 0.16 0.16 0.17 0.18 0.18 0.15 0.16 0.19 0.21 0.23 0.22 0.22 0.25 0.26 0.25 0.27 0.31 0.34 0.36 0.38 0.38 0.39 0.42 0.46
0.36 0.33 0.19 0.23 0.29 0.44 0.38 0.21 0.20 0.33 0.26 0.25 0.14 0.14 0.17 0.17 0.20 0.21 0.18 0.15 0.12 0.11 0.11 0.13 0.14 0.13 0.15 0.16 0.17 0.18 0.20 0.24 0.28 0.29 0.28 0.27 0.27 0.28 0.29 0.30 0.30 0.30 0.30 0.31
0.32 0.34 0.27 0.29 0.28 0.38 0.31 0.15 0.13 0.14 0.12 0.12 0.10 0.14 0.14 0.18 0.22 0.25 0.22 0.15 0.09 0.08 0.07 0.07 0.08 0.09 0.10 0.12 0.16 0.20 0.23 0.30 0.34 0.36 0.31 0.28 0.27 0.26 0.23 0.22 0.22 0.22 0.23 0.24
0.34 0.44 0.57 0.48 0.24 0.28 0.25 0.14 0.13 0.11 0.09 0.09 0.13 0.13 0.13 0.20 0.24 0.22 0.17 0.10 0.07 0.05 0.05 0.05 0.05 0.06 0.08 0.12 0.19 0.27 0.32 0.39 0.40 0.43 0.38 0.33 0.29 0.27 0.24 0.22 0.23 0.25 0.27 0.29
0.21 0.40 0.65 0.59 0.38 0.37 0.24 0.17 0.15 0.12 0.08 0.06 0.08 0.07 0.08 0.13 0.15 0.13 0.10 0.08 0.05 0.04 0.03 0.03 0.04 0.04 0.05 0.10 0.19 0.28 0.34 0.45 0.47 0.46 0.45 0.43 0.43 0.43 0.44 0.43 0.44 0.45 0.44 0.45
0.07 0.27 0.47 0.41 0.32 0.17 0.09 0.10 0.12 0.13 0.10 0.05 0.05 0.04 0.04 0.06 0.12 0.17 0.14 0.10 0.07 0.04 0.02 0.02 0.02 0.03 0.04 0.07 0.13 0.22 0.34 0.48 0.59 0.64 0.62 0.62 0.65 0.69 0.73 0.74 0.73 0.73 0.75 0.75
0.04 0.12 0.29 0.27 0.22 0.10 0.04 0.02 0.03 0.05 0.08 0.02 0.02 0.02 0.02 0.04 0.09 0.16 0.17 0.13 0.11 0.09 0.07 0.05 0.05 0.06 0.09 0.12 0.18 0.30 0.46 0.60 0.70 0.72 0.75 0.78 0.83 0.89 0.86 0.84 0.80 0.72 0.68 0.67
0.10 0.15 0.21 0.21 0.19 0.04 0.01 0.00 0.01 0.05 0.08 0.02 0.01 0.01 0.01 0.02 0.05 0.06 0.11 0.15 0.14 0.15 0.17 0.17 0.18 0.20 0.22 0.25 0.34 0.47 0.58 0.66 0.69 0.69 0.70 0.71 0.69 0.69 0.67 0.65 0.60 0.55 0.49 0.44
0.04 0.08 0.09 0.09 0.13 0.06 0.01 0.01 0.02 0.03 0.02 0.01 0.01 0.01 0.02 0.02 0.02 0.03 0.04 0.08 0.12 0.16 0.22 0.29 0.34 0.37 0.37 0.40 0.46 0.52 0.54 0.54 0.52 0.49 0.47 0.43 0.38 0.33 0.31 0.32 0.31 0.29 0.27 0.23
0.03 0.04 0.05 0.05 0.07 0.03 0.01 0.01 0.02 0.01 0.02 0.01 0.01 0.01 0.02 0.02 0.02 0.02 0.02 0.03 0.05 0.07 0.09 0.14 0.20 0.24 0.25 0.25 0.27 0.29 0.26 0.23 0.19 0.16 0.14 0.13 0.10 0.09 0.08 0.08 0.08 0.10 0.11 0.12
0.06 0.03 0.03 0.04 0.04 0.02 0.02 0.02 0.02 0.02 0.02 0.02 0.02 0.03 0.03 0.03 0.03 0.03 0.02 0.02 0.03 0.03 0.03 0.04 0.06 0.07 0.07 0.08 0.08 0.09 0.07 0.05 0.04 0.03 0.03 0.03 0.03 0.03 0.03 0.04 0.04 0.05 0.07 0.08
0.08 0.05 0.04 0.04 0.03 0.02 0.02 0.02 0.01 0.01 0.01 0.02 0.02 0.02 0.03 0.04 0.04 0.04 0.04 0.03 0.03 0.03 0.03 0.04 0.04 0.04 0.04 0.04 0.05 0.05 0.05 0.04 0.04 0.03 0.03 0.03 0.03 0.04 0.04 0.04 0.04 0.06 0.06 0.08
0.04 0.05 0.06 0.06 0.03 0.02 0.01 0.01 0.01 0.01 0.01 0.01 0.02 0.02 0.02 0.02 0.04 0.03 0.03 0.04 0.04 0.05 0.04 0.04 0.04 0.05 0.06 0.06 0.07 0.07 0.08 0.08 0.07 0.07 0.06 0.07 0.07 0.07 0.07 0.07 0.07 0.09 0.10 0.12